OneWeb SL0297

operational
NORAD ID: 49086 Int'l Des: 2021-075 Owner: ONEWEBN Country: UK Constellation: oneweb
LEOCIRCULARPOLARONEWEB_TYPE

Über OneWeb SL0297

Beschreibung wird geladen...

Live-Position

3D-Globus wird geladen...

Nächste Überflüge

Höhenverlauf

Altitude vs Time

uPlot chart will show altitude changes over time

Zweizeiliger Elementsatz

1 49086U 21075M 25258.12460786 -.00000273 00000-0 -79464-3 0 9995
2 49086 87.8894 45.3452 0001799 94.6446 265.4888 13.12443605199105
Epoch: 15. Sept. 2025 • Age: 12 hours

Aktueller Status

Höhe 1240.3 km
Geschwindigkeit 7.23 km/s
Subsatellitenpunkt -66.77°S, 6.98°E
Startdatum 21. Aug. 2021
Alter 4 years
Typ internet

Technische Details

Klassifizierung Payload
Masse 148.00 kg
Trockenmasse 140.00 kg
Gesamtmasse 148.00 kg
Länge 1.30 m
Durchmesser 1.00 m
Spannweite 5.00 m
Form Trapezoid+2 pan
Hersteller ONEWUS
Bus-Typ ARROW
Phasenstatus In Orbit
Besitzer/Staat ONEWEBN/UK

Große Konstellationen

Loading constellations...